Regional Weather Roundup
Issued by NWS

Home | Current Version | Previous Version | Text Only | Print | Product List | Glossary Off
Versions: 1 2 3 4 5 6 7 8 9 10 11 12 13 14 15 16 17 18 19 20 21 22 23 24 25 26 27 28 29 30 31 32 33 34 35 36 37 38 39 40 41 42 43 44 45 46 47 48 49 50

000
ASUS43 KLMK 300310
RWRKY
KENTUCKY REGIONAL WEATHER ROUNDUP
NATIONAL WEATHER SERVICE LOUISVILLE KY
1100 PM EDT FRI JUL 29 2016

NOTE "FAIR" INDICATES FEW OR NO CLOUDS BELOW 12,000 FEET
WITH NO SIGNIFICANT WEATHER AND/OR OBSTRUCTIONS TO VISIBILITY.

KYZ001>023-026-027-061>063-070>075-300400-
WESTERN AND SOUTH CENTRAL KENTUCKY

CITY           SKY/WX    TMP DP  RH WIND       PRES   REMARKS
PADUCAH        CLOUDY    74  71  91 W3        29.94R
HENDERSON      CLOUDY    73  70  88 CALM      29.94R
OWENSBORO      CLOUDY    74  74 100 S3        29.95R
HOPKINSVILLE   CLOUDY    75  72  91 CALM      29.95F
BOWLING GREEN  PTCLDY    76  72  87 SW3       29.97R
GLASGOW        CLOUDY    74  73  95 W3        29.96F
$$

KYZ024-025-028>034-038-045-046-053-300400-
NORTH CENTRAL KENTUCKY

CITY           SKY/WX    TMP DP  RH WIND       PRES   REMARKS
LOUISVILLE/SDF CLOUDY    77  74  90 SW3       29.94R
LOUISVILLE/LOU MOCLDY    77  73  87 CALM      29.95R
FORT KNOX      MOCLDY    73  70  92 S2        29.94R
$$

KYZ035>037-039>044-047>052-055>060-089>105-300400-
NORTHEAST KENTUCKY

CITY           SKY/WX    TMP DP  RH WIND       PRES   REMARKS
LEXINGTON      CLOUDY    74  71  91 W5        29.97R
COVINGTON      CLOUDY    72  71  97 N6        29.95S
FRANKFORT      CLOUDY    73  69  87 S5        29.95R
$$

KYZ054-064>069-076>088-106>120-300400-
SOUTHEAST KENTUCKY

CITY           SKY/WX    TMP DP  RH WIND       PRES   REMARKS
JACKSON        CLEAR     71  69  93 CALM      29.99R
LONDON         CLEAR     72  68  87 SW5       30.00R
SOMERSET       CLOUDY    70  70 100 S3        30.01R
MIDDLESBORO    MOCLDY    70  69  97 W5        30.03R
MONTICELLO     FOG      N/A N/A N/A NE7       30.01R VSB 1/2
$$





USA.gov is the U.S. government's official web portal to all federal, state and local government web resources and services.